Location: Millers Ferry
(32.0990°N, 87.3680°W)
Time: 04:52:28
(UTC-06:00)

CSL-04 Rocket - Visible Passes

Search period start: 17 January 2018 00:00
Search period end: 27 January 2018 00:00
Orbit: 806 x 860 km, 99.0° (Epoch: 16 January)

Date Brightness Start Highest point End Pass type
(mag) Time Alt. Az. Time Alt. Az. Time Alt. Az.
17 Jan 5.6 05:20:41 10° NE 05:25:22 30° E 05:29:58 10° SSE visible
17 Jan 6.2 18:20:18 10° SSW 18:24:45 25° W 18:29:12 10° NW visible
18 Jan 6.3 05:04:27 10° NE 05:08:21 20° E 05:12:11 10° SE visible
18 Jan 5.5 18:02:42 10° SSW 18:07:45 36° W 18:12:50 10° NNW visible
19 Jan 6.8 04:48:48 10° ENE 04:51:17 13° E 04:53:45 10° ESE visible
19 Jan 4.7 17:45:25 10° S 17:50:49 53° W 17:56:14 10° NNW visible
20 Jan 3.6 06:09:40 10° NNE 06:15:02 85° WNW 06:20:20 10° SSW visible
20 Jan 4.0 17:28:22 10° S 17:33:55 78° WSW 17:39:27 10° NNW visible
21 Jan 4.1 05:52:49 10° NNE 05:58:08 65° ESE 06:03:22 10° S visible
21 Jan 7.1 18:56:11 10° WSW 18:57:43 11° W 18:59:16 10° WNW visible
22 Jan 5.0 05:36:08 10° NNE 05:41:12 43° E 05:46:11 10° S visible
22 Jan 6.7 18:37:07 10° SW 18:40:40 17° W 18:44:13 10° NW visible
23 Jan 5.7 05:19:38 10° NE 05:24:13 29° E 05:28:44 10° SSE visible
23 Jan 6.1 18:19:08 10° SSW 18:23:39 26° W 18:28:11 10° NW visible
24 Jan 6.4 05:03:27 10° NE 05:07:12 19° E 05:10:54 10° SE visible
24 Jan 5.4 18:01:35 10° SSW 18:06:40 37° W 18:11:46 10° NNW visible
25 Jan 6.8 04:47:56 10° ENE 04:50:08 13° E 04:52:20 10° ESE visible
25 Jan 4.6 17:44:18 10° S 17:49:44 55° W 17:55:08 10° NNW visible
26 Jan 3.7 06:08:34 10° NNE 06:13:54 89° WNW 06:19:10 10° SSW visible
